Darke County (VES)

 

Airport Diagram
No Airport Diagram Available
Current Weather/Forecast (VFR Conditions)
METAR KVES 280535Z AUTO 01007KT 10SM CLR M06/M08 A3037 RMK AO2
TAF

Airport Information

All Charts
General
Chart Name View
TAKEOFF MINIMUMS
TAKEOFF MINIMUMS

Approaches
Chart Name Download
RNAV (GPS) RWY 09
RNAV (GPS) RWY 27
RNAV (GPS) RWY 09
RNAV (GPS) RWY 27


Airport Statistics
Departures Arrivals Local
All Collected Stats since June 2016: 3 3 0
2021 Stats: 1 0 0
January Stats: 1 0 0

Inbound Traffic (Arrivals) - 0

No inbound traffic.


Outbound Traffic (Departures) - 0

No outbound traffic.


Local Traffic (Pattern) - 0

No local traffic.